Flag for Fiji Weather past 2 weeks in Lautoka, Fiji

Now
72 °F

Passing clouds.


Feels Like: 67 °F
Forecast: 76 / 85 °F
Wind: 5 mph from Southeast

Location: Nandi


UV Index: 5 (Moderate)

Visibility: N/A


Pressure: 29.83 "Hg

Humidity: 94%

Dew point: 70 °F

Location of LautokaLocation

Historic Weather in Lautoka

°F

Lautoka temperature yesterday

Maximum temperature yesterday: 86 °F (at 11:00 AM)
Minimum temperature yesterday: 72 °F (at 4:00 AM)
Average temperature yesterday: 78 °F

Past Weeks' High & Low Weather Summary

 TemperatureHumidityPressure
High88 °F (Apr 8, 2:00 PM)100% (Apr 5, 4:00 AM)29.95 "Hg (Apr 5, 4:00 AM)
Low68 °F (Apr 6, 2:00 AM)48% (Apr 15, 5:00 PM)29.77 "Hg (Apr 6, 2:00 PM)
Average78 °F81%29.85 "Hg
* Reported Apr 2 3:00 AM — Apr 17 3:00 AM, Lautoka, Weather by CustomWeather, © 2014

Note: Actual official high and low records may vary slightly from our data, if they occured in-between our weather recording intervals... More about our weather records

Advertising

Historic Weather Conditions — Data for Previous 24 hours

 ConditionsComfort  
Time TempWeatherWind HumidityBarometerVisibility
3:00 AM
Apr 17
73 °FPassing clouds.6 mph89%29.83 "HgN/A
2:00 AM73 °FPassing clouds.5 mph89%29.83 "HgN/A
1:00 AM75 °FPassing clouds.3 mph83%29.86 "HgN/A
12:00 AM75 °FPassing clouds.No wind89%29.86 "HgN/A
11:00 PM
Apr 16
75 °FPassing clouds.6 mph89%29.86 "HgN/A
10:00 PM75 °FPassing clouds.6 mph89%29.86 "HgN/A
9:00 PM79 °FPassing clouds.7 mph79%29.86 "HgN/A
8:00 PM79 °FPassing clouds.5 mph84%29.83 "HgN/A
7:00 PM79 °FPassing clouds.6 mph84%29.80 "HgN/A
6:00 PM82 °FPassing clouds.6 mph74%29.80 "HgN/A
5:00 PM84 °FScattered clouds.7 mph70%29.77 "HgN/A
4:00 PM86 °FScattered clouds.13 mph70%29.77 "HgN/A
3:00 PM86 °FPassing clouds.10 mph62%29.77 "HgN/A
2:00 PM86 °FScattered clouds.13 mph62%29.80 "HgN/A
1:00 PM84 °FScattered clouds.12 mph62%29.83 "HgN/A
11:00 AM86 °FPassing clouds.3 mph55%29.86 "HgN/A
10:00 AM84 °FScattered clouds.5 mph62%29.89 "HgN/A
9:00 AM79 °FBroken clouds.3 mph74%29.89 "HgN/A
8:00 AM77 °FPartly sunny.5 mph74%29.86 "HgN/A
7:00 AM73 °FPartly sunny.5 mph83%29.86 "HgN/A
6:00 AM73 °FPassing clouds.No wind83%29.83 "HgN/A
5:00 AM72 °FPassing clouds.No wind88%29.83 "HgN/A
4:00 AM72 °FPassing clouds.No wind88%29.83 "HgN/A
Weather by CustomWeather, © 2014

See weather overview